Погода в Бышеве

Украина / Киевская область     50°16′01″N   29°52′54″E
темп.,
°C
ветер,
м/с
пор.,
м/с
влажн.,
%
обл.,
%
осадки,
мм/ч
давл.,
гПа
погр.,
м
5 августа, чт
чт500:00+16зюз1396100 5.4 1017113
03:00+16ююв379699 5.9 1015133
06:00+16ююз2394100 0.0 101348
09:00+20юз1180100 0.0 1013238
12:00+25ююв2356100 0.0 1012801
15:00+28ююз354524 0.0 10112044
18:00+21ююв477899 0.3 1010218
21:00+19вюв378639 0.4 1009106
6 августа, пт
пт600:00+19вюв51383100 0.0 1007289
03:00+18юв4128819 0.9 1005260
06:00+19ю41094100 4.6 1005465
09:00+19ююв41292100 6.1 1003449
12:00+24ююв61176100 1.1 10041159
15:00+19ю61297100 27.3 1002434
18:00+22юв5888100 2.4 1004456
21:00+18юз3598100 7.0 1004214
7 августа, сб
сб700:00+17зсз4109393 0.2 1006326
03:00+14з3119271 0.2 1008321
06:00+13з3139394 0.0 1009468
09:00+17з410725 0.0 1010583
12:00+22зсз575088 0.0 10111206
15:00+24з474699 0.0 10111794
18:00+25зсз255264 0.0 10111995
21:00+20з246469 0.0 101388
8 августа, вс
вс800:00+18з22730 0.0 101412
03:00+16з22820 0.0 101513
06:00+15зюз11870 0.0 101611
09:00+21ю11670 0.0 1016280
12:00+26юз11495 0.0 10161178
15:00+27з2243100 0.0 10161654
18:00+27ююз12475 0.0 10161229
21:00+21юв2261100 0.0 101714
9 августа, пн
пн900:00+20ююв226599 0.0 101715
03:00+18ю22701 0.0 101819
06:00+18ююв22735 0.0 101713
09:00+23ююв23605 0.0 1018274
12:00+28з22489 0.0 1018991
15:00+30юв104158 0.0 10171288
18:00+29зюз224895 0.0 10171040
21:00+23ююз116310 0.0 101711